Location: Il Palazzetto
(44.9500°N, 11.3667°E)
Time: 15:02:52
(UTC+00:00)

Daily predictions for brighter satellites

Satellite Brightness Start Highest point End
(mag) Time Altitude Azimuth Time Altitude Azimuth Time Altitude Azimuth
Cosmos 1092 Rocket 4.2 15:57:21 10° N 16:03:35 53° ENE 16:09:44 10° SSE
USA 308 4.3 16:00:33 10° NW 16:04:02 24° N 16:07:31 10° NE
COSMOS 2455 3.2 16:00:39 10° S 16:06:25 50° ESE 16:12:14 10° NE
Spot 1 4.4 16:07:33 10° NNE 16:12:21 83° ESE 16:17:22 10° SSW
Cosmos 2322 Rocket 3.8 16:11:49 10° N 16:14:52 14° NE 16:17:54 10° ENE
Cosmos 1697 Rocket 2.7 16:09:37 10° NNW 16:15:16 88° ENE 16:20:53 10° SSE
CZ-4C R/B 3.2 16:09:56 10° NNW 16:16:48 50° NE 16:24:50 10° ESE
Cosmos 468 Rocket 4.2 16:12:35 10° SSW 16:17:44 73° WNW 16:22:57 10° NNE
Cosmos 1980 Rocket 2.3 16:14:57 10° NNW 16:20:30 53° ENE 16:25:59 10° SE
NOAA 12 4.2 16:15:13 10° SSE 16:20:33 88° ENE 16:25:54 10° NNW
ATLAS CENTAUR R/B 3.2 16:13:20 10° SW 16:24:30 80° NW 16:28:48 11° NE
Meteor PRIRODA 4.0 16:20:58 10° S 16:24:34 70° W 16:28:12 10° NNW
COSMO-SKYMED 1 4.0 16:23:00 10° NE 16:26:07 19° E 16:29:13 10° SE
Cosmos 1898 Rocket 3.9 16:21:13 10° NNW 16:26:27 71° WSW 16:31:36 10° S
Cosmos 1627 Rocket 4.4 16:20:24 10° N 16:26:33 67° E 16:32:37 10° SSE
Cosmos 1933 3.3 16:22:50 10° S 16:26:53 86° E 16:30:56 10° N
Cosmos 2369 3.7 16:21:34 10° NNW 16:27:20 74° ENE 16:33:02 10° SSE
Cosmos 2279 Rocket 4.4 16:23:00 10° SSE 16:28:40 39° E 16:34:21 10° NNE
FengYun 1-2 T 4.2 16:23:31 10° SSE 16:29:06 87° ENE 16:34:41 10° NNW
Cosmos 2034 Rocket 4.5 16:23:23 10° SSW 16:29:28 65° W 16:35:37 10° N
CZ-4B R/B 3.3 16:25:46 10° S 16:29:45 66° WSW 16:33:34 10° NNW
USA 305 4.2 16:26:17 10° NW 16:29:50 25° N 16:32:38 14° ENE
Cosmos 1633 Rocket 3.8 16:26:22 10° NNE 16:30:13 29° ENE 16:34:04 10° SE
Cosmos 1812 3.4 16:27:03 10° SSE 16:30:32 34° E 16:34:02 10° NNE
CORIOLIS 4.1 16:25:28 10° SSE 16:30:48 66° ENE 16:36:12 10° N
NOSS 2-2 (C) 4.4 16:26:56 10° NW 16:32:10 74° NE 16:39:33 10° SE
Cosmos 1818 4.2 16:28:08 10° NNW 16:33:09 35° NE 16:38:07 10° ESE
SL-16 R/B 3.3 16:30:03 10° N 16:34:31 23° NE 16:38:57 10° E
AQUARIUS 4.1 16:30:55 10° SSE 16:35:22 68° ENE 16:39:51 10° N
Cosmos 1151 Rocket 3.6 16:31:45 10° SSE 16:35:44 37° E 16:39:46 10° NNE
CZ-2C R/B 3.7 16:34:51 10° S 16:36:49 13° SSE 16:38:44 10° SE
Cosmos 2082 Rocket 2.2 16:31:12 10° SSW 16:36:49 68° ESE 16:42:27 10° NNE
USA 267 3.3 16:32:04 11° NE 16:38:31 84° NW 16:45:04 10° WSW
SMAP 3.1 16:35:32 10° SSE 16:40:11 89° E 16:44:53 10° NNW
Meteor 2-14 Rocket 4.4 16:37:00 10° N 16:43:09 81° E 16:49:12 10° S
Meteor 1-14 Rocket 4.4 16:38:54 10° N 16:44:40 56° ENE 16:50:30 10° SSE
ARGOS 3.7 16:41:59 10° SE 16:46:50 35° ENE 16:51:42 10° N
MOS 1-B 4.4 16:41:15 10° SSE 16:46:53 58° ENE 16:52:34 10° N
Cosmos 1634 Rocket 4.0 16:41:52 10° S 16:48:12 86° E 16:54:33 10° N
Cosmos 2333 Rocket 4.2 16:48:08 10° NNE 16:49:03 10° NNE 16:49:04 10° NNE
CZ-4B DEB 4.2 16:44:38 10° SSE 16:50:08 82° ENE 16:55:40 10° NNW
Cosmos 2278 3.7 16:44:54 10° NNW 16:50:36 65° ENE 16:56:14 10° SE
Cosmos 2026 Rocket 4.0 16:45:03 10° N 16:51:12 83° W 16:57:15 10° S
Cosmos 2208 Rocket 4.4 16:47:30 10° S 16:52:37 47° ESE 16:57:09 14° NE
Cosmos 1833 Rocket 3.7 16:49:20 10° SW 16:54:42 44° WNW 17:00:06 10° NNE
Cosmos 44 Rocket 3.6 16:50:36 10° NNW 16:55:19 43° NE 16:59:24 13° ESE
Cosmos 841 Rocket 3.7 16:50:40 10° SSW 16:55:49 73° WNW 17:00:59 10° NNE
Okean O Rocket 2.1 16:52:49 10° SE 16:56:53 36° ENE 17:00:59 10° N
Cosmos 1666 Rocket 3.5 16:53:34 10° N 16:58:01 69° E 17:02:23 10° SSE
X-37B 2.7 16:56:40 10° S 16:58:08 13° SE 16:58:29 13° SE
MOS 1-B Rocket 4.1 16:53:00 10° NNE 16:58:58 64° ESE 17:05:50 10° S
Cosmos 1328 Rocket 3.8 16:55:08 10° SSE 16:59:23 48° E 17:03:23 12° NNE
H-2A R/B 1.9 16:55:16 10° SSE 17:00:23 72° ENE 17:05:25 10° N
Cosmos 1470 Rocket 4.1 16:57:13 10° N 17:01:22 36° ENE 17:05:30 10° SE
Cosmos 1939 Rocket 4.1 16:57:50 10° S 17:01:47 45° W 17:05:42 10° NNW
USA 306 4.0 16:58:37 10° NW 17:02:20 28° NNE 17:03:35 24° NE
COSMOS 2406 4.1 16:58:16 10° SW 17:03:49 49° WNW 17:09:22 10° NNE
Cosmos 2219 Rocket 4.3 17:04:43 10° NNE 17:04:46 10° NNE 17:04:46 10° NNE
ISS -3.3 17:02:30 10° WNW 17:05:51 60° SW 17:08:20 17° SE
Meteor 2-8 Rocket 4.5 17:00:58 10° S 17:06:57 58° E 17:13:00 10° NNE
ATLAS 2AS CENTAUR R/B 4.5 17:02:19 10° NW 17:07:12 18° N 17:10:37 13° NE
Cosmos 372 Rocket 4.4 17:02:51 10° NNW 17:08:03 66° WSW 17:13:15 10° S
CZ-2C R/B 2.6 17:03:30 10° NNE 17:08:35 54° E 17:13:38 10° S
Meteor 2-21 Rocket 4.4 17:02:51 10° N 17:08:59 87° W 17:15:02 10° S
Cosmos 1125 Rocket 3.9 17:04:37 10° N 17:09:33 39° ENE 17:14:04 12° SE
Cosmos 1500 4.3 17:07:52 10° NNW 17:11:27 46° W 17:15:01 10° SSW
USA 234 3.3 17:05:09 10° SE 17:11:44 88° SW 17:18:18 10° NW
Meteor 1-27 Rocket 4.4 17:08:52 10° SSE 17:13:32 29° E 17:14:11 28° ENE
SKYMED 2 3.6 17:11:18 18° NNE 17:14:28 59° E 17:18:45 10° S
Cosmos 1782 4.2 17:12:16 10° SSW 17:16:01 39° WNW 17:19:46 10° N
Cosmos 1900 4.2 17:11:23 10° SSW 17:16:13 77° ESE 17:18:52 27° NE
CZ-2D R/B 3.7 17:13:21 10° S 17:17:08 64° W 17:20:57 10° NNW
CZ-4B R/B 3.0 17:13:58 10° SSE 17:19:22 79° ENE 17:24:43 10° NNW
Cosmos 1655 Rocket 4.1 17:13:36 10° N 17:19:54 56° ENE 17:26:07 10° SSE
Cosmos 2180 Rocket 4.4 17:15:30 10° S 17:21:49 77° E 17:28:06 10° N
USA 307 3.8 17:18:15 10° NW 17:22:04 31° NNE 17:22:25 31° NNE
Meteor 2-6 Rocket 4.1 17:16:21 10° S 17:22:05 78° E 17:27:41 10° NNE
SJ-11-01 4.2 17:19:00 10° SSE 17:23:42 70° ENE 17:28:26 10° N
APEX 3.6 17:20:08 10° S 17:23:25 38° SE 17:23:25 38° SE
ATLAS 5 CENTAUR R/B 2.3 17:20:31 10° NW 17:26:26 40° NNE 17:26:27 40° NNE
deb Chang Zheng 4 3.5 17:25:14 10° SSE 17:29:33 90° NW 17:33:53 10° NNW
Cosmos 546 4.4 17:29:32 10° SW 17:33:20 75° SSE 17:33:37 70° ESE
Cosmos 2360 Rocket 3.2 17:33:32 10° N 17:37:21 28° NNE 17:37:21 28° NNE
Lacrosse 5 rocket 1.1 17:35:05 10° NW 17:39:03 76° NE 17:39:13 75° ENE
Cosmos 1666 4.1 17:37:03 10° NNW 17:40:31 38° W 17:43:58 10° SSW
Cosmos 1515 Rocket 3.4 17:39:33 10° S 17:44:00 78° E 17:44:48 58° NNE
USA 308 3.8 17:40:50 10° NW 17:44:08 35° N 17:44:08 35° N
Meteor 1-10 Rocket 4.2 17:45:48 10° SSW 17:51:35 84° W 17:56:15 16° N
COSMOS 2455 4.2 17:47:08 10° WSW 17:52:34 34° NW 17:56:40 16° N
Meteor 1-11 Rocket 3.6 17:47:49 10° N 17:53:29 83° ENE 17:59:16 10° SSE
Cosmos 921 Rocket 3.4 17:53:03 10° SSW 17:57:11 59° WNW 17:57:55 50° NNW
SL-08 RB Rocket 3.8 17:54:14 10° S 17:58:52 77° WSW 18:03:29 10° NNW
Cosmos 2322 Rocket 2.1 17:54:21 10° NNW 18:00:03 67° ENE 18:00:16 67° ENE
COSMO-SKYMED 1 3.6 17:59:54 21° N 18:02:29 43° WNW 18:06:35 10° SW
Cosmos 2298 Rocket 4.3 17:57:54 10° NNW 18:03:12 68° WSW 18:08:29 10° S
Cosmos 1980 Rocket 4.4 17:59:38 10° NW 18:04:08 25° WSW 18:08:35 10° SSW
CZ-4C R/B 3.8 17:58:27 10° NW 18:05:37 51° WSW 18:13:47 10° S
Feng Yun 1-1 Rocket 4.5 18:04:06 10° S 18:10:01 77° WSW 18:15:54 10° NNW
USA 305 4.3 18:06:12 10° NW 18:08:39 31° NNW 18:08:39 31° NNW
DMSP B5D2-2 4.3 18:14:59 61° S 18:14:59 61° S 18:19:15 10° SSW
CZ-2C R/B 3.5 18:12:29 10° SW 18:14:25 18° SSW 18:14:25 18° SSW
Aureole 3 Rocket 4.0 18:13:33 10° SSW 18:26:48 - N 18:16:26 46° SSW
SL-16 R/B 2.4 18:13:30 10° NNW 18:19:09 68° WSW 18:21:04 41° S
USA 267 4.1 18:19:25 34° NNE 18:21:05 39° NNW 18:27:02 10° W
Cosmos 2082 Rocket 4.2 18:16:59 10° W 18:21:26 23° NW 18:24:53 14° N
GEOS 3 Rocket 4.3 18:30:36 45° NNW 18:30:36 45° NNW 18:34:10 10° NW
Okean O Rocket 3.9 18:29:42 10° SSW 18:33:18 24° W 18:36:56 10° NW
Cosmos 2333 Rocket 4.1 18:29:27 10° NNW 18:31:05 19° N 18:31:05 19° N
Cosmos 1867 4.4 18:34:52 10° SW 18:38:42 46° SW 18:38:42 46° SW
Cosmos 2219 Rocket 4.5 18:45:46 10° NNW 18:46:30 14° NNW 18:46:30 14° NNW
ATLAS 2AS CENTAUR R/B 4.3 18:54:29 10° NNW 18:58:02 23° N 18:58:02 23° N
Cosmos 2360 Rocket 4.3 19:17:21 10° NW 19:19:10 20° NW 19:19:10 20° NW
